Regional Weather Roundup
Issued by NWS Little Rock, AR

Home | Current Version | Previous Version | Graphics & Text | Print | Product List | Glossary On
Versions: 1 2 3 4 5 6 7 8 9 10 11 12 13 14 15 16 17 18 19 20 21 22 23 24 25 26 27 28 29 30 31 32 33 34 35 36 37 38 39 40 41 42 43 44 45 46 47
000
ASUS44 KLZK 010805
RWRLZK

WEATHER ROUNDUP FOR ARKANSAS
NATIONAL WEATHER SERVICE LITTLE ROCK AR
300 AM CDT SAT AUG 01 2015

NOTE: "FAIR" INDICATES FEW OR NO CLOUDS BELOW 12,000 FEET WITH NO
SIGNIFICANT WEATHER AND/OR OBSTRUCTIONS TO VISIBILITY.

ARZ001-003-010-029-010900-
NORTHWEST ARKANSAS

CITY           SKY/WX    TMP DP  RH WIND       PRES   REMARKS
FAYETTEVILLE   PTCLDY    63  63 100 CALM      30.10F
FORT SMITH     PTCLDY    73  64  73 CALM      30.04F
HARRISON       PTCLDY    67  62  84 CALM      30.10F
BENTONVILLE    CLEAR     66  61  82 CALM      30.10F
ROGERS         CLEAR     69  65  86 CALM      30.10F
SILOAM SPGS    PTCLDY    66  59  77 E3        30.08S
HIGHFILL       PTCLDY    65  62  90 CALM      30.09F
$$

ARZ004-005-016-010900-
NORTH CENTRAL ARKANSAS

CITY           SKY/WX    TMP DP  RH WIND       PRES   REMARKS
BATESVILLE     PTCLDY    70  66  88 W5        30.04F
FLIPPIN        PTCLDY    66  63  88 CALM      30.05S
MTN HOME       PTCLDY    69  68  96 CALM      30.07S
$$

ARZ040-041-010900-
WEST CENTRAL ARKANSAS

CITY           SKY/WX    TMP DP  RH WIND       PRES   REMARKS
MENA           PTCLDY    66  64  94 CALM      30.08S
MOUNT IDA      MOCLDY    68  65  90 CALM      30.04F
$$

ARZ009-017-025-026-028-010900-
NORTHEAST ARKANSAS

CITY           SKY/WX    TMP DP  RH WIND       PRES   REMARKS
JONESBORO      MOCLDY    70  68  93 CALM      30.03F
NEWPORT        PTCLDY    75  70  85 CALM      30.04F
WALNUT RIDGE   PTCLDY    73  66  78 CALM      30.03F
BLYTHEVILLE    PTCLDY    72  68  87 CALM      30.03F
$$

ARZ022-023-033-042-044-010900-
CENTRAL ARKANSAS

CITY           SKY/WX    TMP DP  RH WIND       PRES   REMARKS
LITTLE ROCK    MOCLDY    75  67  76 CALM      30.02F
N LITTLE ROCK    N/A     77  65  66 N6        30.02F
JACKSONVILLE   CLEAR     68  65  89 W1        30.02F
SEARCY         CLEAR     70  68  93 CALM      30.04F
HOT SPRINGS    MOCLDY    72  65  78 CALM      30.04F
RUSSELLVILLE   PTCLDY    70  67  90 CALM      30.04F
$$

ARZ036-010900-
EAST ARKANSAS

CITY           SKY/WX    TMP DP  RH WIND       PRES   REMARKS
WEST MEMPHIS   PTCLDY    72  70  93 CALM      30.00F
$$

ARZ050-053-066-070-073-010900-
SOUTHWEST ARKANSAS

CITY           SKY/WX    TMP DP  RH WIND       PRES   REMARKS
ARKADELPHIA    FAIR      68  68 100 CALM      30.02F
CAMDEN         CLEAR     64  63  94 CALM      30.01S FOG
TEXARKANA      PTCLDY    70  65  84 CALM      30.02S
EL DORADO      CLEAR     68  64  87 N3        30.01F
DE QUEEN       CLEAR     68  68 100 CALM      30.01F FOG
$$

ARZ056-057-069-010900-
SOUTHEAST ARKANSAS

CITY           SKY/WX    TMP DP  RH WIND       PRES   REMARKS
PINE BLUFF     PTCLDY    71  67  87 N3        30.01F
STUTTGART      PTCLDY    72  64  78 MISG      30.00F
MONTICELLO     CLEAR     74  67  78 NE3       30.00S

$$




USA.gov is the U.S. government's official web portal to all federal, state and local government web resources and services.